This is the latest recevied weather packets stored in our database for station/object W1GK. If no packets are shown the sender has not sent any weather packets the latest 10 day(s).
| Time | Temp. | Humidity | Pressure | Rain* | Wind** | Luminosity | Snow |
|---|---|---|---|---|---|---|---|
| 1777692603 | 24.44° C | 10% | 1013.9 hPa | 0 mm | - | 0 W/m² | - |
| 1777692002 | 24.44° C | 10% | 1013.7 hPa | 0 mm | - | 0 W/m² | - |
| 1777691403 | 25° C | 10% | 1013.5 hPa | 0 mm | - | 0 W/m² | - |
| 1777690802 | 25° C | 9% | 1013.4 hPa | 0 mm | - | 0 W/m² | - |
| 1777690201 | 25° C | 9% | 1013.3 hPa | 0 mm | - | 0 W/m² | - |
| 1777689602 | 25.56° C | 9% | 1013.2 hPa | 0 mm | - | 0 W/m² | - |
| 1777689002 | 25.56° C | 9% | 1013.1 hPa | 0 mm | - | 0 W/m² | - |
| 1777688402 | 25.56° C | 9% | 1013 hPa | 0 mm | - | 7 W/m² | - |
| 1777687803 | 25.56° C | 8% | 1012.9 hPa | 0 mm | - | 12 W/m² | - |
| 1777687202 | 26.11° C | 9% | 1012.9 hPa | 0 mm | - | 16 W/m² | - |
| 1777686600 | 26.11° C | 10% | 1012.7 hPa | 0 mm | - | 19 W/m² | - |
| 1777686001 | 26.11° C | 10% | 1012.7 hPa | 0 mm | - | 23 W/m² | - |
| 1777685404 | 26.67° C | 10% | 1012.7 hPa | 0 mm | - | 146 W/m² | - |
| 1777684801 | 26.67° C | 10% | 1012.7 hPa | 0 mm | - | 174 W/m² | - |
| 1777684200 | 26.67° C | 10% | 1012.7 hPa | 0 mm | - | 206 W/m² | - |
| 1777683600 | 27.22° C | 11% | 1012.7 hPa | 0 mm | - | 239 W/m² | - |
| 1777683001 | 27.22° C | 10% | 1012.7 hPa | 0 mm | - | 269 W/m² | - |
| 1777682401 | 27.22° C | 10% | 1012.7 hPa | 0 mm | - | 299 W/m² | - |
| 1777681802 | 27.78° C | 10% | 1012.6 hPa | 0 mm | - | 334 W/m² | - |
| 1777681201 | 27.22° C | 10% | 1012.8 hPa | 0 mm | - | 362 W/m² | - |
| 1777680601 | 27.22° C | 11% | 1012.8 hPa | 0 mm | - | 408 W/m² | - |
| 1777680001 | 27.22° C | 11% | 1012.9 hPa | 0 mm | - | 469 W/m² | - |
| 1777679403 | 27.22° C | 11% | 1013 hPa | 0 mm | - | 497 W/m² | - |
| 1777678800 | 26.67° C | 11% | 1013 hPa | 0 mm | - | 118 W/m² | - |
| 1777678200 | 26.67° C | 11% | 1013 hPa | 0 mm | - | 178 W/m² | - |
* Rain latest hour (hover to see other rain measurements)
** Current wind speed in m/s (hover to see current wind gust speed)